Time,TemperatureF,DewpointF,PressureIn,WindDirection,WindDirectionDegrees,WindSpeedMPH,WindSpeedGustMPH,Humidity,HourlyPrecipIn,Conditions,Clouds,dailyrainin,SoftwareType,DateUTC
2013-01-26 00:00:00,54.2,52.5,30.05,NNW,338,0.0,0.0,94,0.00,,---,0.00,VWS V14.00,2013-01-26 08:00:00,
2013-01-26 00:30:00,54.4,52.7,30.04,NNW,338,0.0,0.0,94,0.00,,---,0.00,VWS V14.00,2013-01-26 08:30:00,
2013-01-26 01:00:00,54.5,52.8,30.03,NNW,338,0.0,0.0,94,0.00,,---,0.00,VWS V14.00,2013-01-26 09:00:00,
2013-01-26 01:30:00,54.9,53.2,30.03,NE,45,0.0,3.0,94,0.00,,---,0.00,VWS V14.00,2013-01-26 09:30:00,
2013-01-26 02:00:00,54.6,52.3,30.04,NE,45,0.0,0.0,92,0.00,,---,0.00,VWS V14.00,2013-01-26 10:00:00,
2013-01-26 02:30:00,53.7,51.7,30.03,NE,45,0.0,0.0,93,0.00,,---,0.00,VWS V14.00,2013-01-26 10:30:00,
2013-01-26 03:00:00,53.3,51.6,30.02,NE,45,0.0,0.0,94,0.00,,---,0.00,VWS V14.00,2013-01-26 11:00:00,
2013-01-26 03:30:00,52.7,51.0,30.02,NE,45,0.0,0.0,94,0.00,,---,0.00,VWS V14.00,2013-01-26 11:30:00,
2013-01-26 04:00:00,53.0,51.3,30.01,NE,45,0.0,0.0,94,0.00,,---,0.00,VWS V14.00,2013-01-26 12:00:00,
2013-01-26 04:30:00,52.7,51.0,30.01,NE,45,0.0,0.0,94,0.00,,---,0.00,VWS V14.00,2013-01-26 12:30:00,
2013-01-26 05:00:00,52.5,51.1,30.02,NE,45,0.0,0.0,95,0.00,,---,0.00,VWS V14.00,2013-01-26 13:00:00,
2013-01-26 05:30:00,52.6,51.2,30.01,NE,45,0.0,0.0,95,0.00,,---,0.00,VWS V14.00,2013-01-26 13:30:00,
2013-01-26 06:00:00,52.8,51.4,30.02,NE,45,0.0,0.0,95,0.00,,---,0.00,VWS V14.00,2013-01-26 14:00:00,
2013-01-26 06:30:00,53.1,51.7,30.03,NE,45,0.0,0.0,95,0.00,,---,0.00,VWS V14.00,2013-01-26 14:30:00,
2013-01-26 07:00:00,52.6,51.2,30.02,NE,45,0.0,0.0,95,0.00,,---,0.00,VWS V14.00,2013-01-26 15:00:00,
2013-01-26 07:30:00,50.6,49.2,30.02,NE,45,0.0,0.0,95,0.00,,---,0.00,VWS V14.00,2013-01-26 15:30:00,
2013-01-26 08:00:00,51.0,49.9,30.02,East,90,0.0,5.0,96,0.00,,---,0.00,VWS V14.00,2013-01-26 16:00:00,
2013-01-26 08:30:00,51.7,50.6,30.03,East,90,0.0,5.0,96,0.00,,---,0.00,VWS V14.00,2013-01-26 16:30:00,
2013-01-26 09:00:00,52.0,50.9,30.03,East,90,0.0,4.0,96,0.00,,---,0.00,VWS V14.00,2013-01-26 17:00:00,
2013-01-26 09:30:00,52.6,51.5,30.03,ESE,112,0.0,4.0,96,0.00,,---,0.00,VWS V14.00,2013-01-26 17:30:00,
2013-01-26 10:00:00,53.2,52.1,30.04,East,90,0.0,4.0,96,0.00,,---,0.00,VWS V14.00,2013-01-26 18:00:00,
2013-01-26 10:30:00,52.3,51.2,30.05,SSW,202,1.0,10.0,96,0.00,,---,0.00,VWS V14.00,2013-01-26 18:30:00,
2013-01-26 11:00:00,52.4,51.0,30.05,SSE,158,0.0,2.0,95,0.00,,---,0.00,VWS V14.00,2013-01-26 19:00:00,
2013-01-26 11:30:00,53.8,52.4,30.04,SSE,158,0.0,4.0,95,0.00,,---,0.00,VWS V14.00,2013-01-26 19:30:00,
2013-01-26 12:00:00,55.0,53.0,30.03,SW,225,0.0,6.0,93,0.00,,---,0.00,VWS V14.00,2013-01-26 20:00:00,
2013-01-26 12:30:00,56.2,50.5,30.02,SE,135,2.0,10.0,81,0.00,,---,0.00,VWS V14.00,2013-01-26 20:30:00,
2013-01-26 13:00:00,56.2,47.7,30.01,SW,225,4.0,12.0,73,0.00,,---,0.00,VWS V14.00,2013-01-26 21:00:00,
2013-01-26 13:06:00,56.2,47.7,30.01,SW,225,4.0,12.0,73,0.00,,---,0.00,VWS V14.00,2013-01-26 21:06:00,
2013-01-26 13:11:00,55.7,47.2,30.01,SW,221,5.0,12.0,73,0.00,,---,0.00,VWS V14.00,2013-01-26 21:11:00,
2013-01-26 13:16:00,55.6,47.5,30.01,SSE,155,0.0,12.0,74,0.00,,---,0.00,VWS V14.00,2013-01-26 21:16:00,
2013-01-26 13:21:00,55.6,47.1,30.01,South,180,0.0,12.0,73,0.00,,---,0.00,VWS V14.00,2013-01-26 21:21:00,
2013-01-26 13:26:00,55.7,47.2,30.01,SW,217,0.0,12.0,73,0.00,,---,0.00,VWS V14.00,2013-01-26 21:26:00,
2013-01-26 13:30:00,55.7,47.2,30.01,SW,227,0.0,12.0,73,0.00,,---,0.00,VWS V14.00,2013-01-26 21:30:00,
2013-01-26 13:31:00,55.7,47.2,30.01,West,269,0.0,2.0,73,0.00,,---,0.00,VWS V14.00,2013-01-26 21:31:00,
2013-01-26 13:36:00,55.5,45.9,30.01,SW,236,4.0,13.0,70,0.00,,---,0.00,VWS V14.00,2013-01-26 21:36:00,
2013-01-26 13:41:00,55.5,46.3,30.01,SSW,201,5.0,13.0,71,0.00,,---,0.00,VWS V14.00,2013-01-26 21:41:00,
2013-01-26 13:46:00,55.6,46.0,30.01,WSW,248,0.0,13.0,70,0.00,,---,0.00,VWS V14.00,2013-01-26 21:46:00,
2013-01-26 13:51:00,55.9,45.9,30.01,SSW,194,4.0,13.0,69,0.00,,---,0.00,VWS V14.00,2013-01-26 21:51:00,
2013-01-26 13:56:00,56.8,46.8,30.00,SSE,168,11.0,13.0,69,0.00,,---,0.00,VWS V14.00,2013-01-26 21:56:00,
2013-01-26 14:00:00,57.3,46.5,30.01,South,191,6.0,13.0,67,0.00,,---,0.00,VWS V14.00,2013-01-26 22:00:00,
2013-01-26 14:01:00,57.4,46.5,30.01,South,177,0.0,6.0,67,0.00,,---,0.00,VWS V14.00,2013-01-26 22:01:00,
2013-01-26 14:06:00,57.7,46.0,30.01,South,182,0.0,10.0,65,0.00,,---,0.00,VWS V14.00,2013-01-26 22:06:00,
2013-01-26 14:10:00,57.7,46.4,30.01,SW,219,9.0,13.0,66,0.00,,---,0.00,VWS V14.00,2013-01-26 22:10:00,
2013-01-26 14:15:00,57.6,45.9,30.01,West,259,4.0,13.0,65,0.00,,---,0.00,VWS V14.00,2013-01-26 22:15:00,
2013-01-26 14:20:00,57.4,45.8,30.01,SSW,202,9.0,17.0,65,0.00,,---,0.00,VWS V14.00,2013-01-26 22:20:00,
2013-01-26 14:25:00,57.1,45.9,30.01,SSW,202,12.0,17.0,66,0.00,,---,0.00,VWS V14.00,2013-01-26 22:25:00,
2013-01-26 14:30:00,56.7,45.9,30.01,South,185,7.0,10.0,67,0.00,,---,0.00,VWS V14.00,2013-01-26 22:30:00,
2013-01-26 14:35:00,56.3,45.9,30.01,SSW,212,5.0,20.0,68,0.00,,---,0.00,VWS V14.00,2013-01-26 22:35:00,
2013-01-26 14:40:00,56.2,46.2,30.02,SW,222,4.0,20.0,69,0.00,,---,0.00,VWS V14.00,2013-01-26 22:40:00,
2013-01-26 14:45:00,56.3,46.3,30.02,SSW,207,8.0,20.0,69,0.00,,---,0.00,VWS V14.00,2013-01-26 22:45:00,
2013-01-26 14:50:00,56.3,47.0,30.02,SSW,199,6.0,20.0,71,0.00,,---,0.00,VWS V14.00,2013-01-26 22:50:00,
2013-01-26 14:55:00,56.4,47.1,30.02,SSW,207,5.0,20.0,71,0.00,,---,0.00,VWS V14.00,2013-01-26 22:55:00,
2013-01-26 15:00:00,56.4,47.1,30.02,SW,222,7.0,7.0,71,0.00,,---,0.00,VWS V14.00,2013-01-26 23:00:00,
2013-01-26 15:05:00,56.6,46.9,30.02,South,185,3.0,12.0,70,0.00,,---,0.00,VWS V14.00,2013-01-26 23:05:00,
2013-01-26 15:10:00,56.6,46.9,30.02,SW,223,2.0,12.0,70,0.00,,---,0.00,VWS V14.00,2013-01-26 23:10:00,
2013-01-26 15:15:00,56.3,47.0,30.02,South,182,0.0,12.0,71,0.00,,---,0.00,VWS V14.00,2013-01-26 23:15:00,
2013-01-26 15:26:00,55.8,46.9,30.02,SSW,192,3.0,3.0,72,0.00,,---,0.00,VWS V14.00,2013-01-26 23:26:00,
2013-01-26 15:30:00,54.9,44.5,30.02,WSW,255,2.0,12.0,68,0.00,,---,0.00,VWS V14.00,2013-01-26 23:30:00,
2013-01-26 15:31:00,55.6,46.4,30.02,South,190,7.0,13.0,71,0.00,,---,0.00,VWS V14.00,2013-01-26 23:31:00,
2013-01-26 15:36:00,55.5,46.6,30.02,South,182,4.0,13.0,72,0.00,,---,0.00,VWS V14.00,2013-01-26 23:36:00,
2013-01-26 15:41:00,55.6,46.7,30.02,SW,232,2.0,13.0,72,0.00,,---,0.00,VWS V14.00,2013-01-26 23:41:00,
2013-01-26 15:46:00,55.6,46.7,30.02,SE,144,0.0,13.0,72,0.00,,---,0.00,VWS V14.00,2013-01-26 23:46:00,
2013-01-26 15:51:00,55.7,46.8,30.02,SW,228,4.0,13.0,72,0.00,,---,0.00,VWS V14.00,2013-01-26 23:51:00,
2013-01-26 15:56:00,55.6,46.4,30.02,WSW,246,0.0,13.0,71,0.00,,---,0.00,VWS V14.00,2013-01-26 23:56:00,
2013-01-26 16:00:00,55.4,46.2,30.02,SSW,202,4.0,13.0,71,0.00,,---,0.00,VWS V14.00,2013-01-27 00:00:00,
2013-01-26 16:01:00,55.3,46.1,30.02,South,190,0.0,12.0,71,0.00,,---,0.00,VWS V14.00,2013-01-27 00:01:00,
2013-01-26 16:06:00,55.2,46.0,30.02,SSW,202,6.0,12.0,71,0.00,,---,0.00,VWS V14.00,2013-01-27 00:06:00,
2013-01-26 16:11:00,55.3,46.1,30.02,SSW,196,3.0,12.0,71,0.00,,---,0.00,VWS V14.00,2013-01-27 00:11:00,
2013-01-26 16:16:00,55.1,45.5,30.02,SW,222,1.0,12.0,70,0.00,,---,0.00,VWS V14.00,2013-01-27 00:16:00,
2013-01-26 16:21:00,55.1,45.5,30.02,WSW,242,0.0,12.0,70,0.00,,---,0.00,VWS V14.00,2013-01-27 00:21:00,
2013-01-26 16:26:00,55.0,44.7,30.02,SW,223,4.0,12.0,68,0.00,,---,0.00,VWS V14.00,2013-01-27 00:26:00,
2013-01-26 16:30:00,54.9,44.5,30.02,WSW,255,2.0,12.0,68,0.00,,---,0.00,VWS V14.00,2013-01-27 00:30:00,
2013-01-26 16:31:00,54.9,44.5,30.02,West,259,11.0,15.0,68,0.00,,---,0.00,VWS V14.00,2013-01-27 00:31:00,
2013-01-26 16:36:00,54.4,43.3,30.02,West,269,0.0,15.0,66,0.00,,---,0.00,VWS V14.00,2013-01-27 00:36:00,
2013-01-26 16:41:00,54.2,43.1,30.02,West,271,0.0,15.0,66,0.00,,---,0.00,VWS V14.00,2013-01-27 00:41:00,
2013-01-26 16:46:00,54.1,43.0,30.02,SW,233,0.0,15.0,66,0.00,,---,0.00,VWS V14.00,2013-01-27 00:46:00,
2013-01-26 16:51:00,54.0,42.9,30.03,SW,236,3.0,15.0,66,0.00,,---,0.00,VWS V14.00,2013-01-27 00:51:00,
2013-01-26 16:56:00,53.7,43.0,30.03,WNW,296,0.0,15.0,67,0.00,,---,0.00,VWS V14.00,2013-01-27 00:56:00,
2013-01-26 17:00:00,49.9,41.2,30.05,West,261,0.0,14.0,72,0.00,,---,0.00,VWS V14.00,2013-01-27 01:00:00,
2013-01-26 17:01:00,53.5,42.8,30.03,WSW,240,0.0,2.0,67,0.00,,---,0.00,VWS V14.00,2013-01-27 01:01:00,
2013-01-26 17:06:00,53.3,43.0,30.03,WSW,253,7.0,7.0,68,0.00,,---,0.00,VWS V14.00,2013-01-27 01:06:00,
2013-01-26 17:11:00,52.9,42.6,30.03,SSW,208,4.0,14.0,68,0.00,,---,0.00,VWS V14.00,2013-01-27 01:11:00,
2013-01-26 17:16:00,52.5,42.3,30.03,WSW,252,4.0,14.0,68,0.00,,---,0.00,VWS V14.00,2013-01-27 01:16:00,
2013-01-26 17:21:00,52.1,42.2,30.04,West,263,0.0,14.0,69,0.00,,---,0.00,VWS V14.00,2013-01-27 01:21:00,
2013-01-26 17:26:00,51.7,41.9,30.04,WSW,246,5.0,14.0,69,0.00,,---,0.00,VWS V14.00,2013-01-27 01:26:00,
2013-01-26 17:30:00,49.2,41.3,30.06,West,275,7.0,13.0,74,0.00,,---,0.00,VWS V14.00,2013-01-27 01:30:00,
2013-01-26 17:31:00,51.3,41.5,30.04,SW,231,2.0,14.0,69,0.00,,---,0.00,VWS V14.00,2013-01-27 01:31:00,
2013-01-26 17:36:00,51.0,42.3,30.04,SW,234,3.0,14.0,72,0.00,,---,0.00,VWS V14.00,2013-01-27 01:36:00,
2013-01-26 17:41:00,50.7,41.3,30.04,WSW,240,5.0,14.0,70,0.00,,---,0.00,VWS V14.00,2013-01-27 01:41:00,
2013-01-26 17:46:00,50.5,41.1,30.05,SW,229,0.0,14.0,70,0.00,,---,0.00,VWS V14.00,2013-01-27 01:46:00,
2013-01-26 17:51:00,50.2,41.2,30.05,SW,236,2.0,14.0,71,0.00,,---,0.00,VWS V14.00,2013-01-27 01:51:00,
2013-01-26 17:56:00,50.0,41.3,30.05,SW,232,3.0,14.0,72,0.00,,---,0.00,VWS V14.00,2013-01-27 01:56:00,
2013-01-26 18:00:00,49.9,41.2,30.05,West,261,0.0,14.0,72,0.00,,---,0.00,VWS V14.00,2013-01-27 02:00:00,
2013-01-26 18:01:00,49.9,41.2,30.05,WSW,238,2.0,4.0,72,0.00,,---,0.00,VWS V14.00,2013-01-27 02:01:00,
2013-01-26 18:06:00,49.7,41.4,30.05,SW,222,0.0,12.0,73,0.00,,---,0.00,VWS V14.00,2013-01-27 02:06:00,
2013-01-26 18:11:00,49.6,41.3,30.05,West,267,2.0,13.0,73,0.00,,---,0.00,VWS V14.00,2013-01-27 02:11:00,
2013-01-26 18:16:00,49.5,41.6,30.06,WSW,248,2.0,13.0,74,0.00,,---,0.00,VWS V14.00,2013-01-27 02:16:00,
2013-01-26 18:21:00,49.4,41.5,30.06,West,259,0.0,13.0,74,0.00,,---,0.00,VWS V14.00,2013-01-27 02:21:00,
2013-01-26 18:26:00,49.2,41.3,30.06,WSW,256,5.0,13.0,74,0.00,,---,0.00,VWS V14.00,2013-01-27 02:26:00,
2013-01-26 18:30:00,49.2,41.3,30.06,West,275,7.0,13.0,74,0.00,,---,0.00,VWS V14.00,2013-01-27 02:30:00,
2013-01-26 18:31:00,49.1,41.2,30.06,WSW,251,5.0,7.0,74,0.00,,---,0.00,VWS V14.00,2013-01-27 02:31:00,
2013-01-26 18:36:00,49.0,41.1,30.06,NW,307,0.0,14.0,74,0.00,,---,0.00,VWS V14.00,2013-01-27 02:36:00,
2013-01-26 18:41:00,49.0,41.1,30.06,WSW,252,5.0,15.0,74,0.00,,---,0.00,VWS V14.00,2013-01-27 02:41:00,
2013-01-26 18:46:00,48.8,40.9,30.07,West,261,4.0,15.0,74,0.00,,---,0.00,VWS V14.00,2013-01-27 02:46:00,
2013-01-26 18:51:00,48.7,40.8,30.07,WNW,288,5.0,15.0,74,0.00,,---,0.00,VWS V14.00,2013-01-27 02:51:00,
2013-01-26 18:56:00,48.6,40.7,30.07,West,259,4.0,15.0,74,0.00,,---,0.00,VWS V14.00,2013-01-27 02:56:00,
2013-01-26 19:00:00,48.5,40.6,30.07,WNW,296,2.0,15.0,74,0.00,,---,0.00,VWS V14.00,2013-01-27 03:00:00,
2013-01-26 19:01:00,48.5,40.6,30.07,West,267,0.0,6.0,74,0.00,,---,0.00,VWS V14.00,2013-01-27 03:01:00,
2013-01-26 19:06:00,48.5,41.0,30.07,WSW,248,0.0,13.0,75,0.00,,---,0.00,VWS V14.00,2013-01-27 03:06:00,
2013-01-26 19:11:00,48.5,41.0,30.07,West,271,6.0,13.0,75,0.00,,---,0.00,VWS V14.00,2013-01-27 03:11:00,
2013-01-26 19:16:00,48.6,41.4,30.08,SW,219,2.0,13.0,76,0.00,,---,0.00,VWS V14.00,2013-01-27 03:16:00,
2013-01-26 19:21:00,48.7,41.5,30.08,West,269,5.0,13.0,76,0.00,,---,0.00,VWS V14.00,2013-01-27 03:21:00,
2013-01-26 19:26:00,48.7,41.5,30.08,SW,223,5.0,13.0,76,0.00,,---,0.00,VWS V14.00,2013-01-27 03:26:00,
2013-01-26 19:30:00,46.9,40.4,30.10,WSW,253,0.0,13.0,78,0.00,,---,0.00,VWS V14.00,2013-01-27 03:30:00,
2013-01-26 19:31:00,48.6,41.0,30.08,WSW,240,4.0,12.0,75,0.00,,---,0.00,VWS V14.00,2013-01-27 03:31:00,
2013-01-26 19:36:00,48.5,41.3,30.08,SW,232,5.0,12.0,76,0.00,,---,0.00,VWS V14.00,2013-01-27 03:36:00,
2013-01-26 19:41:00,48.4,41.2,30.08,West,267,0.0,12.0,76,0.00,,---,0.00,VWS V14.00,2013-01-27 03:41:00,
2013-01-26 19:46:00,48.2,41.0,30.08,West,265,3.0,14.0,76,0.00,,---,0.00,VWS V14.00,2013-01-27 03:46:00,
2013-01-26 19:51:00,48.0,40.8,30.08,WSW,248,3.0,14.0,76,0.00,,---,0.00,VWS V14.00,2013-01-27 03:51:00,
2013-01-26 19:56:00,47.8,41.0,30.08,WSW,255,3.0,14.0,77,0.00,,---,0.00,VWS V14.00,2013-01-27 03:56:00,
2013-01-26 20:00:00,47.7,40.8,30.08,SW,225,7.0,14.0,77,0.00,,---,0.00,VWS V14.00,2013-01-27 04:00:00,
2013-01-26 20:01:00,47.7,40.8,30.08,West,267,5.0,7.0,77,0.00,,---,0.00,VWS V14.00,2013-01-27 04:01:00,
2013-01-26 20:06:00,47.6,40.8,30.09,West,265,5.0,12.0,77,0.00,,---,0.00,VWS V14.00,2013-01-27 04:06:00,
2013-01-26 20:11:00,47.5,40.7,30.09,WSW,256,6.0,12.0,77,0.00,,---,0.00,VWS V14.00,2013-01-27 04:11:00,
2013-01-26 20:15:00,47.3,40.8,30.09,West,262,7.0,12.0,78,0.00,,---,0.00,VWS V14.00,2013-01-27 04:15:00,
2013-01-26 20:20:00,47.2,40.7,30.09,WSW,245,0.0,12.0,78,0.00,,---,0.00,VWS V14.00,2013-01-27 04:20:00,
2013-01-26 20:25:00,47.0,40.5,30.10,West,268,6.0,13.0,78,0.00,,---,0.00,VWS V14.00,2013-01-27 04:25:00,
2013-01-26 20:30:00,46.9,40.4,30.10,West,269,0.0,2.0,78,0.00,,---,0.00,VWS V14.00,2013-01-27 04:30:00,
2013-01-26 20:35:00,46.8,40.3,30.09,WNW,297,6.0,12.0,78,0.00,,---,0.00,VWS V14.00,2013-01-27 04:35:00,
2013-01-26 20:40:00,46.6,40.1,30.10,WSW,255,0.0,12.0,78,0.00,,---,0.00,VWS V14.00,2013-01-27 04:40:00,
2013-01-26 20:45:00,46.5,40.0,30.10,West,280,6.0,12.0,78,0.00,,---,0.00,VWS V14.00,2013-01-27 04:45:00,
2013-01-26 20:50:00,46.4,39.9,30.10,West,266,4.0,12.0,78,0.00,,---,0.00,VWS V14.00,2013-01-27 04:50:00,
2013-01-26 20:55:00,46.3,39.8,30.09,West,270,2.0,12.0,78,0.00,,---,0.00,VWS V14.00,2013-01-27 04:55:00,
2013-01-26 21:00:00,46.3,39.8,30.10,West,265,0.0,2.0,78,0.00,,---,0.00,VWS V14.00,2013-01-27 05:00:00,
2013-01-26 21:01:00,46.2,39.7,30.10,West,274,0.0,4.0,78,0.00,,---,0.00,VWS V14.00,2013-01-27 05:01:00,
2013-01-26 21:02:00,46.2,39.7,30.10,WSW,256,1.0,5.0,78,0.00,,---,0.00,VWS V14.00,2013-01-27 05:02:00,
2013-01-26 21:07:00,46.2,39.7,30.10,West,277,4.0,6.0,78,0.00,,---,0.00,VWS V14.00,2013-01-27 05:07:00,
2013-01-26 21:12:00,46.2,39.7,30.10,West,280,2.0,7.0,78,0.00,,---,0.00,VWS V14.00,2013-01-27 05:12:00,
2013-01-26 21:17:00,46.2,39.7,30.11,WNW,288,6.0,10.0,78,0.00,,---,0.00,VWS V14.00,2013-01-27 05:17:00,
2013-01-26 21:22:00,46.3,39.8,30.11,West,278,2.0,12.0,78,0.00,,---,0.00,VWS V14.00,2013-01-27 05:22:00,
2013-01-26 21:27:00,46.3,39.8,30.10,WSW,250,0.0,12.0,78,0.00,,---,0.00,VWS V14.00,2013-01-27 05:27:00,
2013-01-26 21:30:00,46.3,39.8,30.10,West,268,2.0,12.0,78,0.00,,---,0.00,VWS V14.00,2013-01-27 05:30:00,
2013-01-26 21:32:00,46.3,39.8,30.10,West,273,6.0,6.0,78,0.00,,---,0.00,VWS V14.00,2013-01-27 05:32:00,
2013-01-26 21:37:00,46.1,39.6,30.11,West,260,6.0,7.0,78,0.00,,---,0.00,VWS V14.00,2013-01-27 05:37:00,
2013-01-26 21:42:00,46.1,40.0,30.11,West,263,3.0,8.0,79,0.00,,---,0.00,VWS V14.00,2013-01-27 05:42:00,
2013-01-26 21:47:00,46.1,40.0,30.11,WSW,250,4.0,8.0,79,0.00,,---,0.00,VWS V14.00,2013-01-27 05:47:00,
2013-01-26 21:52:00,46.0,40.2,30.11,SW,221,2.0,8.0,80,0.00,,---,0.00,VWS V14.00,2013-01-27 05:52:00,
2013-01-26 21:57:00,46.0,40.2,30.11,West,274,0.0,8.0,80,0.00,,---,0.00,VWS V14.00,2013-01-27 05:57:00,
2013-01-26 22:00:00,46.0,40.2,30.11,SW,228,0.0,8.0,80,0.00,,---,0.00,VWS V14.00,2013-01-27 06:00:00,
2013-01-26 22:02:00,45.9,40.1,30.11,WSW,252,3.0,5.0,80,0.00,,---,0.00,VWS V14.00,2013-01-27 06:02:00,
2013-01-26 22:07:00,45.8,40.3,30.11,WSW,238,3.0,8.0,81,0.00,,---,0.00,VWS V14.00,2013-01-27 06:07:00,
2013-01-26 22:12:00,45.8,40.3,30.11,WSW,246,1.0,8.0,81,0.00,,---,0.00,VWS V14.00,2013-01-27 06:12:00,
2013-01-26 22:17:00,45.8,40.3,30.11,WSW,244,1.0,8.0,81,0.00,,---,0.00,VWS V14.00,2013-01-27 06:17:00,
2013-01-26 22:22:00,45.7,40.2,30.11,WSW,246,2.0,8.0,81,0.00,,---,0.00,VWS V14.00,2013-01-27 06:22:00,
2013-01-26 22:27:00,45.6,40.1,30.12,WSW,242,3.0,12.0,81,0.00,,---,0.00,VWS V14.00,2013-01-27 06:27:00,
2013-01-26 22:30:00,45.0,39.5,30.13,WSW,257,0.0,6.0,81,0.00,,---,0.00,VWS V14.00,2013-01-27 06:30:00,
2013-01-26 22:32:00,45.7,40.2,30.12,West,265,0.0,7.0,81,0.00,,---,0.00,VWS V14.00,2013-01-27 06:32:00,
2013-01-26 22:37:00,45.6,40.1,30.12,West,267,1.0,10.0,81,0.00,,---,0.00,VWS V14.00,2013-01-27 06:37:00,
2013-01-26 22:42:00,45.7,40.2,30.12,West,269,2.0,11.0,81,0.00,,---,0.00,VWS V14.00,2013-01-27 06:42:00,
2013-01-26 22:47:00,45.8,40.3,30.13,West,267,4.0,11.0,81,0.00,,---,0.00,VWS V14.00,2013-01-27 06:47:00,
2013-01-26 22:52:00,45.8,40.0,30.13,WSW,257,0.0,12.0,80,0.00,,---,0.00,VWS V14.00,2013-01-27 06:52:00,
2013-01-26 22:57:00,45.8,40.0,30.12,West,261,0.0,12.0,80,0.00,,---,0.00,VWS V14.00,2013-01-27 06:57:00,
2013-01-26 23:00:00,44.9,39.4,30.13,SW,234,0.0,6.0,81,0.00,,---,0.00,VWS V14.00,2013-01-27 07:00:00,
2013-01-26 23:02:00,45.7,39.9,30.13,SW,229,0.0,5.0,80,0.00,,---,0.00,VWS V14.00,2013-01-27 07:02:00,
2013-01-26 23:07:00,45.6,39.8,30.13,West,266,0.0,6.0,80,0.00,,---,0.00,VWS V14.00,2013-01-27 07:07:00,
2013-01-26 23:13:00,45.4,39.6,30.13,WSW,257,0.0,6.0,80,0.00,,---,0.00,VWS V14.00,2013-01-27 07:13:00,
2013-01-26 23:18:00,45.2,39.4,30.12,WSW,257,0.0,6.0,80,0.00,,---,0.00,VWS V14.00,2013-01-27 07:18:00,
2013-01-26 23:23:00,45.1,39.6,30.12,WSW,257,0.0,6.0,81,0.00,,---,0.00,VWS V14.00,2013-01-27 07:23:00,
2013-01-26 23:28:00,45.1,39.6,30.13,WSW,257,0.0,6.0,81,0.00,,---,0.00,VWS V14.00,2013-01-27 07:28:00,
2013-01-26 23:30:00,45.0,39.5,30.13,WSW,257,0.0,6.0,81,0.00,,---,0.00,VWS V14.00,2013-01-27 07:30:00,
2013-01-26 23:33:00,44.9,39.4,30.13,WSW,248,0.0,5.0,81,0.00,,---,0.00,VWS V14.00,2013-01-27 07:33:00,
2013-01-26 23:38:00,44.9,39.4,30.13,West,259,0.0,6.0,81,0.00,,---,0.00,VWS V14.00,2013-01-27 07:38:00,
2013-01-26 23:43:00,44.9,39.4,30.13,WSW,244,0.0,6.0,81,0.00,,---,0.00,VWS V14.00,2013-01-27 07:43:00,
2013-01-26 23:48:00,44.9,39.4,30.13,WSW,239,0.0,6.0,81,0.00,,---,0.00,VWS V14.00,2013-01-27 07:48:00,
2013-01-26 23:53:00,44.9,39.4,30.13,WSW,246,0.0,6.0,81,0.00,,---,0.00,VWS V14.00,2013-01-27 07:53:00,
2013-01-26 23:58:00,44.9,39.4,30.13,SW,234,0.0,6.0,81,0.00,,---,0.00,VWS V14.00,2013-01-27 07:58:00,